| time (UTC) | temp F | wind direction | speed MPH | gust MPH | rain 1hr in | rain 24hr in | rain mn in | humidity % | barometer mb |
| 20260506181553 | 77 | 94 | 7.0 | 11.0 | 0.00 | 0.00 | 0.00 | 92 | 1012.0 |
| 20260506180056 | 77 | 89 | 7.0 | 12.0 | 0.00 | 0.00 | 0.00 | 92 | 1012.1 |
| 20260506174601 | 77 | 117 | 8.0 | 11.0 | 0.00 | 0.00 | 0.00 | 91 | 1012.3 |
| 20260506173109 | 78 | 115 | 6.0 | 9.0 | 0.00 | 0.00 | 0.00 | 91 | 1012.4 |
| 20260506171610 | 78 | 101 | 7.0 | 11.0 | 0.00 | 0.00 | 0.00 | 91 | 1012.3 |
| 20260506170116 | 78 | 98 | 3.0 | 9.0 | 0.00 | 0.00 | 0.00 | 91 | 1012.3 |
| 20260506164609 | 78 | 129 | 4.0 | 8.0 | 0.00 | 0.00 | 0.00 | 92 | 1012.3 |
| 20260506161600 | 77 | 111 | 6.0 | 12.0 | 0.00 | 0.00 | 0.00 | 92 | 1012.4 |
| 20260506160119 | 77 | 113 | 3.0 | 9.0 | 0.00 | 0.00 | 0.00 | 92 | 1011.9 |
| 20260506154607 | 77 | 84 | 6.0 | 12.0 | 0.00 | 0.00 | 0.00 | 92 | 1012.1 |
| 20260506153057 | 77 | 106 | 9.0 | 14.0 | 0.00 | 0.00 | 0.00 | 92 | 1011.6 |
| 20260506151558 | 77 | 110 | 8.0 | 12.0 | 0.00 | 0.00 | 0.00 | 92 | 1011.3 |
| 20260506150053 | 77 | 125 | 9.0 | 13.0 | 0.00 | 0.00 | 0.00 | 93 | 1011.3 |
| 20260506144607 | 77 | 136 | 10.0 | 15.0 | 0.00 | 0.00 | 0.00 | 93 | 1011.4 |
| 20260506143055 | 77 | 109 | 7.0 | 14.0 | 0.00 | 0.00 | 0.00 | 93 | 1011.3 |
| 20260506141555 | 77 | 105 | 5.0 | 12.0 | 0.00 | 0.00 | 0.00 | 93 | 1011.3 |
| 20260506140053 | 77 | 96 | 8.0 | 12.0 | 0.00 | 0.00 | 0.00 | 93 | 1011.2 |
| 20260506134557 | 77 | 113 | 5.0 | 10.0 | 0.00 | 0.00 | 0.00 | 93 | 1011.3 |
| 20260506133057 | 76 | 96 | 5.0 | 8.0 | 0.00 | 0.00 | 0.00 | 93 | 1011.4 |
| 20260506131556 | 76 | 107 | 3.0 | 10.0 | 0.00 | 0.00 | 0.00 | 93 | 1011.4 |
| 20260506130100 | 76 | 118 | 7.0 | 11.0 | 0.00 | 0.00 | 0.00 | 93 | 1011.4 |
| 20260506124553 | 76 | 123 | 8.0 | 12.0 | 0.00 | 0.00 | 0.00 | 93 | 1011.3 |
| 20260506123056 | 76 | 115 | 4.0 | 10.0 | 0.00 | 0.00 | 0.00 | 93 | 1011.3 |
| 20260506121557 | 76 | 93 | 6.0 | 11.0 | 0.00 | 0.00 | 0.00 | 93 | 1011.1 |
| 20260506120055 | 76 | 129 | 6.0 | 10.0 | 0.00 | 0.00 | 0.00 | 93 | 1010.9 |
| 20260506114556 | 76 | 116 | 3.0 | 8.0 | 0.00 | 0.00 | 0.00 | 93 | 1010.5 |
| 20260506113053 | 76 | 104 | 3.0 | 11.0 | 0.00 | 0.00 | 0.00 | 93 | 1010.5 |
| 20260506111554 | 76 | 118 | 6.0 | 11.0 | 0.00 | 0.00 | 0.00 | 93 | 1010.7 |
| 20260506110054 | 76 | 121 | 6.0 | 10.0 | 0.00 | 0.00 | 0.00 | 93 | 1010.4 |
| 20260506104556 | 76 | 119 | 7.0 | 11.0 | 0.00 | 0.00 | 0.00 | 93 | 1010.4 |
| 20260506103119 | 76 | 131 | 7.0 | 10.0 | 0.00 | 0.00 | 0.00 | 93 | 1010.3 |
| 20260506101556 | 76 | 82 | 5.0 | 10.0 | 0.00 | 0.00 | 0.00 | 93 | 1010.1 |
| 20260506100056 | 76 | 140 | 4.0 | 10.0 | 0.00 | 0.00 | 0.00 | 93 | 1010.1 |
| 20260506094605 | 76 | 146 | 4.0 | 10.0 | 0.00 | 0.00 | 0.00 | 93 | 1010.0 |
| 20260506093103 | 76 | 133 | 4.0 | 9.0 | 0.00 | 0.00 | 0.00 | 93 | 1010.1 |
| 20260506091604 | 76 | 117 | 5.0 | 12.0 | 0.00 | 0.00 | 0.00 | 93 | 1010.2 |
| 20260506090100 | 76 | 119 | 7.0 | 9.0 | 0.00 | 0.00 | 0.00 | 92 | 1010.3 |
| 20260506084613 | 76 | 115 | 7.0 | 10.0 | 0.00 | 0.00 | 0.00 | 92 | 1010.5 |
| 20260506083100 | 76 | 143 | 5.0 | 9.0 | 0.00 | 0.00 | 0.00 | 92 | 1010.5 |
| 20260506081559 | 76 | 145 | 3.0 | 8.0 | 0.00 | 0.00 | 0.00 | 92 | 1010.6 |
| 20260506073103 | 76 | 138 | 4.0 | 9.0 | 0.00 | 0.00 | 0.00 | 92 | 1011.2 |
| 20260506071604 | 76 | 155 | 6.0 | 11.0 | 0.00 | 0.00 | 0.00 | 92 | 1011.1 |
| 20260506061603 | 76 | 150 | 8.0 | 13.0 | 0.00 | 0.00 | 0.00 | 92 | 1011.1 |
| 20260506050110 | 76 | 150 | 10.0 | 17.0 | 0.00 | 0.00 | 0.00 | 91 | 1010.9 |
| 20260506044554 | 76 | 179 | 14.0 | 20.0 | 0.00 | 0.00 | 0.00 | 91 | 1011.1 |
| 20260506043101 | 76 | 123 | 14.0 | 19.0 | 0.00 | 0.00 | 0.00 | 91 | 1011.0 |
| 20260506041554 | 76 | 130 | 13.0 | 21.0 | 0.00 | 0.00 | 0.00 | 91 | 1011.1 |
| 20260506040104 | 76 | 163 | 14.0 | 20.0 | 0.00 | 0.00 | 0.00 | 91 | 1011.0 |
| 20260506034558 | 76 | 144 | 11.0 | 19.0 | 0.00 | 0.00 | 0.00 | 91 | 1011.1 |
| 20260506033053 | 76 | 117 | 12.0 | 19.0 | 0.00 | 0.00 | 0.00 | 91 | 1011.0 |
| 20260506031553 | 76 | 132 | 12.0 | 18.0 | 0.00 | 0.00 | 0.00 | 91 | 1011.1 |
| 20260506030056 | 76 | 215 | 11.0 | 18.0 | 0.00 | 0.00 | 0.00 | 91 | 1010.9 |
| 20260506024559 | 76 | 143 | 13.0 | 19.0 | 0.00 | 0.00 | 0.00 | 91 | 1010.7 |
| 20260506023056 | 76 | 126 | 13.0 | 20.0 | 0.00 | 0.00 | 0.00 | 91 | 1010.5 |
| 20260506021603 | 76 | 140 | 13.0 | 21.0 | 0.00 | 0.00 | 0.00 | 91 | 1010.3 |
| 20260506020059 | 76 | 157 | 11.0 | 16.0 | 0.00 | 0.00 | 0.00 | 91 | 1010.1 |
| 20260506014554 | 76 | 149 | 12.0 | 18.0 | 0.00 | 0.00 | 0.00 | 91 | 1009.9 |
| 20260506013102 | 77 | 170 | 11.0 | 18.0 | 0.00 | 0.00 | 0.00 | 91 | 1009.6 |
| 20260506011603 | 77 | 144 | 11.0 | 16.0 | 0.00 | 0.00 | 0.00 | 91 | 1009.6 |
| 20260506010055 | 77 | 155 | 13.0 | 18.0 | 0.00 | 0.00 | 0.00 | 90 | 1009.5 |
| 20260506004552 | 77 | 144 | 10.0 | 16.0 | 0.00 | 0.00 | 0.00 | 90 | 1009.4 |
| 20260506003053 | 77 | 145 | 11.0 | 17.0 | 0.00 | 0.00 | 0.00 | 90 | 1009.5 |
| 20260506001554 | 77 | 170 | 12.0 | 17.0 | 0.00 | 0.00 | 0.00 | 89 | 1009.4 |
| 20260506000055 | 77 | 162 | 11.0 | 16.0 | 0.00 | 0.00 | 0.00 | 89 | 1009.4 |
| 20260505234606 | 78 | 142 | 11.0 | 19.0 | 0.00 | 0.00 | 0.00 | 88 | 1009.4 |
| 20260505233053 | 78 | 159 | 11.0 | 19.0 | 0.00 | 0.00 | 0.00 | 88 | 1009.3 |
| 20260505231606 | 78 | 157 | 12.0 | 17.0 | 0.00 | 0.00 | 0.00 | 87 | 1009.5 |
| 20260505230055 | 78 | 132 | 12.0 | 18.0 | 0.00 | 0.00 | 0.00 | 87 | 1009.6 |
| 20260505224556 | 79 | 151 | 10.0 | 17.0 | 0.00 | 0.00 | 0.00 | 87 | 1009.9 |
| 20260505223104 | 79 | 150 | 10.0 | 16.0 | 0.00 | 0.00 | 0.00 | 86 | 1009.8 |
| 20260505221559 | 79 | 144 | 11.0 | 15.0 | 0.00 | 0.00 | 0.00 | 85 | 1009.9 |
| 20260505220055 | 79 | 162 | 8.0 | 15.0 | 0.00 | 0.00 | 0.00 | 86 | 1010.0 |
| 20260505214613 | 80 | 159 | 9.0 | 15.0 | 0.00 | 0.00 | 0.00 | 85 | 1010.1 |
| 20260505213102 | 80 | 191 | 10.0 | 16.0 | 0.00 | 0.00 | 0.00 | 85 | 1010.1 |
| 20260505211606 | 80 | 213 | 8.0 | 16.0 | 0.00 | 0.00 | 0.00 | 84 | 1010.4 |
| 20260505210057 | 80 | 183 | 7.0 | 14.0 | 0.00 | 0.00 | 0.00 | 84 | 1010.6 |
| 20260505204553 | 80 | 202 | 8.0 | 15.0 | 0.00 | 0.00 | 0.00 | 85 | 1010.8 |
| 20260505203054 | 80 | 135 | 7.0 | 14.0 | 0.00 | 0.00 | 0.00 | 84 | 1011.0 |
| 20260505201558 | 80 | 168 | 8.0 | 17.0 | 0.00 | 0.00 | 0.00 | 84 | 1011.0 |
| 20260505194556 | 80 | 157 | 10.0 | 16.0 | 0.00 | 0.00 | 0.00 | 84 | 1011.0 |
| 20260505193052 | 80 | 159 | 10.0 | 17.0 | 0.00 | 0.00 | 0.00 | 84 | 1011.1 |
| 20260505191554 | 80 | 188 | 10.0 | 16.0 | 0.00 | 0.00 | 0.00 | 84 | 1011.0 |
| 20260505190100 | 80 | 145 | 9.0 | 15.0 | 0.00 | 0.00 | 0.00 | 84 | 1011.3 |
| 20260505184557 | 80 | 200 | 9.0 | 15.0 | 0.00 | 0.00 | 0.00 | 84 | 1011.5 |
| 20260505183104 | 80 | 155 | 11.0 | 17.0 | 0.00 | 0.00 | 0.00 | 85 | 1011.4 |